CES5174 ZSQD-ZBAA

Flight info

Callsign CES5174
Flight time 1h 9m
Altitude 34100
Route WFG81D WFG W103 YQG W160 TUMLO W157 BEKDO/K0872S1070 W157 AVBOX AVBOX6J
Aircraft A339/H-SADE1E2E3GHIJ3J5M1P2RWXY/LB2D1

Departure

Time 2026-04-22 13:01
Airport Qingdao Jiaodong International Airport (ZSQD)

Arrival

Time 2026-04-22 14:10
Airport Beijing Capital International Airport (ZBAA)
Time Latitude Longitude Altitude Speed Heading
2026-04-22 12:42 36.26753 120.37794 50 ft 0 kts 256°
2026-04-22 12:58 36.26752 120.37786 50 ft 4 kts 260°
2026-04-22 12:59 36.26741 120.37738 50 ft 6 kts 231°
2026-04-22 12:59 36.26666 120.37718 50 ft 14 kts 185°
2026-04-22 12:59 36.26616 120.37667 50 ft 10 kts 246°
2026-04-22 12:59 36.26584 120.37545 50 ft 16 kts 265°
2026-04-22 13:00 36.26627 120.37468 50 ft 11 kts 334°
2026-04-22 13:00 36.26719 120.37431 50 ft 35 kts 344°
2026-04-22 13:00 36.27197 120.37272 50 ft 106 kts 344°
2026-04-22 13:00 36.28117 120.36974 135 ft 154 kts 345°
2026-04-22 13:01 36.29091 120.36591 826 ft 149 kts 324°
2026-04-22 13:01 36.29672 120.35558 1408 ft 154 kts 276°
2026-04-22 13:01 36.29624 120.34230 2011 ft 160 kts 258°
2026-04-22 13:01 36.29337 120.32845 2503 ft 177 kts 253°
2026-04-22 13:02 36.28969 120.31319 3029 ft 194 kts 253°
2026-04-22 13:02 36.28568 120.29636 3577 ft 212 kts 253°
2026-04-22 13:02 36.28144 120.27797 4136 ft 230 kts 254°
2026-04-22 13:02 36.27699 120.25816 4691 ft 248 kts 254°
2026-04-22 13:03 36.27227 120.23689 5266 ft 265 kts 254°
2026-04-22 13:03 36.26734 120.21452 6059 ft 272 kts 254°
2026-04-22 13:03 36.26236 120.19181 6934 ft 275 kts 254°
2026-04-22 13:03 36.25734 120.16894 7782 ft 279 kts 255°
2026-04-22 13:04 36.25223 120.14558 8625 ft 282 kts 255°
2026-04-22 13:04 36.24710 120.12218 9454 ft 286 kts 255°
2026-04-22 13:04 36.24179 120.09795 10291 ft 289 kts 255°
2026-04-22 13:04 36.23656 120.07414 11094 ft 293 kts 255°
2026-04-22 13:05 36.23114 120.04950 11906 ft 296 kts 255°
2026-04-22 13:05 36.22572 120.02487 12703 ft 300 kts 255°
2026-04-22 13:05 36.22021 119.99985 13496 ft 304 kts 255°
2026-04-22 13:05 36.21514 119.97447 14271 ft 307 kts 263°
2026-04-22 13:06 36.21621 119.94812 15023 ft 311 kts 285°
2026-04-22 13:06 36.22540 119.92404 15767 ft 315 kts 307°
2026-04-22 13:06 36.24172 119.90564 16214 ft 329 kts 330°
2026-04-22 13:06 36.26343 119.89486 16631 ft 344 kts 342°
2026-04-22 13:07 36.28687 119.88609 16965 ft 361 kts 343°
2026-04-22 13:07 36.31131 119.87708 17269 ft 379 kts 343°
2026-04-22 13:07 36.33737 119.86715 17572 ft 396 kts 342°
2026-04-22 13:07 36.36257 119.85321 17868 ft 411 kts 327°
2026-04-22 13:08 36.38366 119.82970 18443 ft 418 kts 309°
2026-04-22 13:08 36.39857 119.79868 19184 ft 420 kts 295°
2026-04-22 13:08 36.41065 119.76547 19900 ft 423 kts 294°
2026-04-22 13:08 36.42264 119.73166 20533 ft 428 kts 294°
2026-04-22 13:09 36.43480 119.69778 21150 ft 432 kts 294°
2026-04-22 13:09 36.44720 119.66377 21753 ft 436 kts 295°
2026-04-22 13:09 36.45991 119.62922 22341 ft 440 kts 295°
2026-04-22 13:09 36.47273 119.59445 22908 ft 443 kts 295°
2026-04-22 13:10 36.48557 119.55964 23451 ft 447 kts 295°
2026-04-22 13:10 36.49848 119.52458 23977 ft 451 kts 295°
2026-04-22 13:10 36.51160 119.48893 24492 ft 454 kts 295°
2026-04-22 13:10 36.52478 119.45306 24990 ft 458 kts 295°
2026-04-22 13:11 36.53796 119.41718 25430 ft 461 kts 295°
2026-04-22 13:11 36.55138 119.38059 25593 ft 463 kts 295°
2026-04-22 13:11 36.56475 119.34408 25595 ft 462 kts 294°
2026-04-22 13:11 36.57800 119.30789 25597 ft 462 kts 294°
2026-04-22 13:12 36.59145 119.27110 25597 ft 462 kts 294°
2026-04-22 13:12 36.60482 119.23447 25597 ft 462 kts 294°
2026-04-22 13:12 36.61792 119.19851 25597 ft 462 kts 294°
2026-04-22 13:12 36.63100 119.16141 25597 ft 462 kts 291°
2026-04-22 13:13 36.64147 119.12402 25597 ft 462 kts 287°
2026-04-22 13:13 36.64934 119.08475 25597 ft 462 kts 281°
2026-04-22 13:13 36.65439 119.04533 25598 ft 462 kts 277°
2026-04-22 13:13 36.65843 119.00562 25598 ft 462 kts 277°
2026-04-22 13:14 36.66221 118.96621 25598 ft 462 kts 277°
2026-04-22 13:14 36.66600 118.92635 25597 ft 462 kts 277°
2026-04-22 13:14 36.66983 118.88660 25597 ft 462 kts 277°
2026-04-22 13:14 36.67372 118.84643 25597 ft 462 kts 277°
2026-04-22 13:15 36.67755 118.80715 25597 ft 462 kts 277°
2026-04-22 13:15 36.68148 118.76685 25597 ft 462 kts 277°
2026-04-22 13:15 36.68531 118.72748 25597 ft 462 kts 277°
2026-04-22 13:15 36.68922 118.68734 25599 ft 470 kts 277°
2026-04-22 13:16 36.69312 118.64707 25597 ft 472 kts 277°
2026-04-22 13:16 36.69708 118.60603 25597 ft 472 kts 277°
2026-04-22 13:16 36.70097 118.56570 25597 ft 472 kts 277°
2026-04-22 13:16 36.70486 118.52505 25597 ft 472 kts 277°
2026-04-22 13:17 36.70872 118.48475 25597 ft 472 kts 277°
2026-04-22 13:17 36.71265 118.44357 25597 ft 472 kts 277°
2026-04-22 13:17 36.71652 118.40286 25597 ft 472 kts 277°
2026-04-22 13:17 36.72036 118.36227 25597 ft 472 kts 277°
2026-04-22 13:18 36.72416 118.32201 25597 ft 472 kts 276°
2026-04-22 13:18 36.72799 118.28130 25597 ft 472 kts 276°
2026-04-22 13:18 36.73180 118.24051 25597 ft 472 kts 276°
2026-04-22 13:18 36.73567 118.19958 25597 ft 472 kts 277°
2026-04-22 13:19 36.73970 118.15923 25597 ft 472 kts 277°
2026-04-22 13:19 36.74382 118.11877 25597 ft 472 kts 277°
2026-04-22 13:19 36.74794 118.07830 25597 ft 472 kts 277°
2026-04-22 13:19 36.75210 118.03728 25597 ft 472 kts 277°
2026-04-22 13:20 36.75618 117.99680 25597 ft 472 kts 277°
2026-04-22 13:20 36.76025 117.95628 25597 ft 472 kts 277°
2026-04-22 13:20 36.76431 117.91572 25597 ft 472 kts 277°
2026-04-22 13:20 36.76838 117.87476 25597 ft 472 kts 277°
2026-04-22 13:21 36.77243 117.83388 25597 ft 472 kts 277°
2026-04-22 13:21 36.77640 117.79371 25597 ft 472 kts 277°
2026-04-22 13:21 36.78043 117.75278 25597 ft 472 kts 277°
2026-04-22 13:21 36.78439 117.71240 25597 ft 472 kts 277°
2026-04-22 13:22 36.78837 117.67168 25597 ft 472 kts 277°
2026-04-22 13:22 36.79234 117.63085 25596 ft 472 kts 277°
2026-04-22 13:22 36.79626 117.59050 25596 ft 472 kts 277°
2026-04-22 13:22 36.80023 117.54946 25596 ft 472 kts 277°
2026-04-22 13:23 36.80416 117.50873 25596 ft 472 kts 277°
2026-04-22 13:23 36.80806 117.46814 25596 ft 472 kts 277°
2026-04-22 13:23 36.81195 117.42745 25596 ft 472 kts 277°
2026-04-22 13:23 36.81585 117.38666 25596 ft 472 kts 277°
2026-04-22 13:24 36.81968 117.34631 25596 ft 472 kts 276°
2026-04-22 13:24 36.82354 117.30549 25597 ft 472 kts 276°
2026-04-22 13:24 36.82823 117.26504 25592 ft 472 kts 282°
2026-04-22 13:24 36.83901 117.22649 25593 ft 472 kts 295°
2026-04-22 13:25 36.85655 117.19167 25595 ft 472 kts 308°
2026-04-22 13:25 36.87929 117.16265 25600 ft 472 kts 318°
2026-04-22 13:25 36.90400 117.13563 25600 ft 472 kts 319°
2026-04-22 13:25 36.92889 117.10905 25598 ft 472 kts 319°
2026-04-22 13:26 36.95373 117.08247 25597 ft 472 kts 319°
2026-04-22 13:26 36.97865 117.05557 25597 ft 472 kts 319°
2026-04-22 13:26 37.00364 117.02840 25597 ft 472 kts 319°
2026-04-22 13:26 37.02808 117.00169 25597 ft 472 kts 319°
2026-04-22 13:27 37.05279 116.97463 25597 ft 472 kts 319°
2026-04-22 13:27 37.07758 116.94740 25597 ft 472 kts 319°
2026-04-22 13:27 37.10217 116.92036 25597 ft 472 kts 319°
2026-04-22 13:27 37.12706 116.89298 25597 ft 472 kts 319°
2026-04-22 13:28 37.15149 116.86606 25597 ft 472 kts 319°
2026-04-22 13:28 37.17622 116.83884 25597 ft 472 kts 319°
2026-04-22 13:28 37.20147 116.81450 25595 ft 472 kts 326°
2026-04-22 13:28 37.22931 116.79392 25594 ft 464 kts 333°
2026-04-22 13:29 37.25909 116.77783 25596 ft 462 kts 340°
2026-04-22 13:29 37.28941 116.76553 25598 ft 462 kts 343°
2026-04-22 13:29 37.32006 116.75408 25598 ft 462 kts 344°
2026-04-22 13:29 37.35086 116.74276 25597 ft 462 kts 344°
2026-04-22 13:30 37.38149 116.73144 25597 ft 462 kts 343°
2026-04-22 13:30 37.41251 116.71988 25597 ft 462 kts 343°
2026-04-22 13:30 37.44307 116.70840 25597 ft 462 kts 343°
2026-04-22 13:30 37.47366 116.69685 25597 ft 462 kts 343°
2026-04-22 13:31 37.50482 116.68507 25597 ft 462 kts 343°
2026-04-22 13:31 37.53511 116.67357 25597 ft 462 kts 343°
2026-04-22 13:31 37.56596 116.66185 25597 ft 462 kts 343°
2026-04-22 13:31 37.59679 116.65012 25597 ft 462 kts 343°
2026-04-22 13:32 37.62752 116.63843 25597 ft 462 kts 343°
2026-04-22 13:32 37.65789 116.62686 25597 ft 462 kts 343°
2026-04-22 13:32 37.68850 116.61519 25597 ft 462 kts 343°
2026-04-22 13:32 37.71958 116.60332 25597 ft 462 kts 343°
2026-04-22 13:33 37.75018 116.59164 25597 ft 462 kts 343°
2026-04-22 13:33 37.78061 116.58000 25597 ft 462 kts 343°
2026-04-22 13:33 37.81118 116.56831 25597 ft 462 kts 343°
2026-04-22 13:33 37.84204 116.55649 25597 ft 462 kts 343°
2026-04-22 13:34 37.87268 116.54474 25597 ft 462 kts 343°
2026-04-22 13:34 37.90365 116.53286 25597 ft 462 kts 343°
2026-04-22 13:34 37.93408 116.52102 25596 ft 462 kts 342°
2026-04-22 13:34 37.96382 116.50626 25595 ft 462 kts 336°
2026-04-22 13:35 37.99246 116.48743 25596 ft 462 kts 330°
2026-04-22 13:35 38.01900 116.46539 25597 ft 462 kts 325°
2026-04-22 13:35 38.04522 116.44148 25597 ft 462 kts 324°
2026-04-22 13:35 38.07103 116.41743 25597 ft 462 kts 324°
2026-04-22 13:36 38.09693 116.39336 25596 ft 462 kts 324°
2026-04-22 13:36 38.12292 116.36937 25597 ft 462 kts 324°
2026-04-22 13:36 38.14879 116.34557 25597 ft 462 kts 324°
2026-04-22 13:36 38.17506 116.32143 25597 ft 462 kts 324°
2026-04-22 13:37 38.20109 116.29748 25597 ft 462 kts 324°
2026-04-22 13:37 38.22787 116.27379 25592 ft 462 kts 329°
2026-04-22 13:37 38.25768 116.25875 25587 ft 462 kts 347°
2026-04-22 13:37 38.28974 116.25571 25592 ft 462 kts
2026-04-22 13:38 38.32123 116.26373 25603 ft 462 kts 14°
2026-04-22 13:38 38.38367 116.28597 25598 ft 462 kts 15°
2026-04-22 13:38 38.41510 116.29720 25597 ft 462 kts 15°
2026-04-22 13:39 38.44595 116.30808 25597 ft 462 kts 15°
2026-04-22 13:39 38.47684 116.31885 25597 ft 462 kts 15°
2026-04-22 13:39 38.50802 116.32966 25597 ft 462 kts 15°
2026-04-22 13:39 38.53912 116.34042 25597 ft 462 kts 15°
2026-04-22 13:40 38.56998 116.35108 25597 ft 462 kts 15°
2026-04-22 13:40 38.60087 116.36176 25597 ft 462 kts 15°
2026-04-22 13:40 38.63188 116.37250 25597 ft 462 kts 15°
2026-04-22 13:40 38.66227 116.38435 25590 ft 462 kts 22°
2026-04-22 13:41 38.68910 116.40640 25565 ft 460 kts 42°
2026-04-22 13:41 38.70852 116.43858 25271 ft 455 kts 62°
2026-04-22 13:41 38.71953 116.47620 24691 ft 452 kts 72°
2026-04-22 13:41 38.72910 116.51443 24052 ft 450 kts 70°
2026-04-22 13:42 38.74057 116.55167 23446 ft 447 kts 66°
2026-04-22 13:42 38.75366 116.58694 22886 ft 443 kts 63°
2026-04-22 13:42 38.76712 116.62231 22318 ft 439 kts 68°
2026-04-22 13:42 38.77508 116.66006 21745 ft 435 kts 80°
2026-04-22 13:43 38.77951 116.69779 21208 ft 431 kts 83°
2026-04-22 13:43 38.78325 116.73577 20649 ft 428 kts 83°
2026-04-22 13:43 38.78685 116.77383 20089 ft 425 kts 83°
2026-04-22 13:43 38.79034 116.81093 19545 ft 421 kts 83°
2026-04-22 13:44 38.79386 116.84820 18998 ft 418 kts 83°
2026-04-22 13:44 38.79729 116.88465 18461 ft 415 kts 83°
2026-04-22 13:44 38.80078 116.92155 17911 ft 411 kts 83°
2026-04-22 13:44 38.80421 116.95789 17375 ft 408 kts 83°
2026-04-22 13:45 38.80805 116.99331 16847 ft 405 kts 78°
2026-04-22 13:45 38.81924 117.02637 16259 ft 403 kts 54°
2026-04-22 13:45 38.83882 117.05087 15821 ft 397 kts 34°
2026-04-22 13:45 38.86315 117.06792 15703 ft 397 kts 26°
2026-04-22 13:46 38.88793 117.08335 15702 ft 398 kts 26°
2026-04-22 13:46 38.91269 117.09906 15699 ft 399 kts 26°
2026-04-22 13:46 38.93726 117.11517 15698 ft 399 kts 27°
2026-04-22 13:46 38.96194 117.13170 15697 ft 399 kts 27°
2026-04-22 13:47 38.98671 117.14845 15697 ft 399 kts 27°
2026-04-22 13:47 39.01215 117.16229 15690 ft 398 kts 15°
2026-04-22 13:47 39.03935 117.16779 15547 ft 394 kts
2026-04-22 13:47 39.06644 117.16458 15451 ft 394 kts 347°
2026-04-22 13:48 39.09275 117.15448 15427 ft 390 kts 341°
2026-04-22 13:48 39.11866 117.14274 14907 ft 390 kts 340°
2026-04-22 13:48 39.14434 117.13084 14287 ft 390 kts 340°
2026-04-22 13:48 39.16953 117.11930 13886 ft 385 kts 340°
2026-04-22 13:49 39.19516 117.10770 13797 ft 386 kts 340°
2026-04-22 13:49 39.22040 117.09636 13797 ft 388 kts 341°
2026-04-22 13:49 39.24626 117.08480 13797 ft 388 kts 341°
2026-04-22 13:49 39.27166 117.07347 13797 ft 388 kts 341°
2026-04-22 13:50 39.29722 117.06209 13797 ft 388 kts 341°
2026-04-22 13:50 39.32277 117.05070 13797 ft 388 kts 341°
2026-04-22 13:50 39.34837 117.03927 13797 ft 388 kts 341°
2026-04-22 13:50 39.37407 117.02779 13797 ft 388 kts 341°
2026-04-22 13:51 39.39966 117.01633 13797 ft 387 kts 341°
2026-04-22 13:51 39.42498 117.00498 13647 ft 386 kts 341°
2026-04-22 13:51 39.45039 116.99358 13396 ft 385 kts 341°
2026-04-22 13:51 39.47563 116.98227 13146 ft 384 kts 341°
2026-04-22 13:52 39.50101 116.97089 12894 ft 383 kts 341°
2026-04-22 13:52 39.52616 116.95959 12643 ft 381 kts 341°
2026-04-22 13:52 39.55134 116.94828 12392 ft 380 kts 341°
2026-04-22 13:52 39.57631 116.93704 12141 ft 378 kts 341°
2026-04-22 13:53 39.60122 116.92697 11891 ft 377 kts 345°
2026-04-22 13:53 39.62688 116.91927 11639 ft 376 kts 349°
2026-04-22 13:53 39.65268 116.91416 11389 ft 374 kts 353°
2026-04-22 13:53 39.67842 116.91024 11140 ft 373 kts 354°
2026-04-22 13:54 39.70406 116.90654 10891 ft 372 kts 354°
2026-04-22 13:54 39.72996 116.90279 10585 ft 369 kts 354°
2026-04-22 13:54 39.75537 116.89904 10309 ft 368 kts 353°
2026-04-22 13:54 39.78070 116.89526 10059 ft 367 kts 353°
2026-04-22 13:55 39.80600 116.89144 9862 ft 366 kts 353°
2026-04-22 13:55 39.83134 116.88761 9737 ft 366 kts 353°
2026-04-22 13:55 39.85612 116.88385 9578 ft 348 kts 353°
2026-04-22 13:55 39.87921 116.88034 9237 ft 326 kts 353°
2026-04-22 13:56 39.90121 116.87700 8667 ft 313 kts 353°
2026-04-22 13:56 39.92227 116.87379 8251 ft 297 kts 353°
2026-04-22 13:56 39.94215 116.87076 7919 ft 281 kts 353°
2026-04-22 13:56 39.96127 116.86784 7390 ft 276 kts 353°
2026-04-22 13:57 39.98037 116.86493 6773 ft 274 kts 353°
2026-04-22 13:57 39.99910 116.86207 6210 ft 270 kts 353°
2026-04-22 13:57 40.01769 116.85774 5912 ft 269 kts 339°
2026-04-22 13:57 40.03318 116.84466 5892 ft 271 kts 313°
2026-04-22 13:58 40.04280 116.82373 5895 ft 271 kts 287°
2026-04-22 13:58 40.04462 116.80220 5918 ft 272 kts 266°
2026-04-22 13:58 40.04338 116.77737 5893 ft 272 kts 274°
2026-04-22 13:58 40.04906 116.75414 5686 ft 269 kts 303°
2026-04-22 13:59 40.06250 116.73747 5386 ft 269 kts 332°
2026-04-22 13:59 40.08020 116.73042 5122 ft 268 kts 352°
2026-04-22 13:59 40.09860 116.72765 4876 ft 267 kts 354°
2026-04-22 13:59 40.11752 116.72521 4612 ft 266 kts 354°
2026-04-22 14:00 40.13580 116.72275 4364 ft 265 kts 354°
2026-04-22 14:00 40.15422 116.72009 4117 ft 264 kts 354°
2026-04-22 14:00 40.17226 116.71739 3921 ft 261 kts 353°
2026-04-22 14:00 40.19029 116.71463 3902 ft 263 kts 353°
2026-04-22 14:01 40.20872 116.71178 3900 ft 263 kts 353°
2026-04-22 14:01 40.22688 116.70898 3899 ft 263 kts 353°
2026-04-22 14:01 40.24513 116.70615 3898 ft 263 kts 353°
2026-04-22 14:01 40.26337 116.70332 3898 ft 263 kts 353°
2026-04-22 14:02 40.28157 116.70049 3898 ft 263 kts 353°
2026-04-22 14:02 40.29979 116.69765 3898 ft 263 kts 353°
2026-04-22 14:02 40.31787 116.69485 3894 ft 256 kts 353°
2026-04-22 14:02 40.33520 116.69215 3893 ft 245 kts 353°
2026-04-22 14:03 40.35169 116.68918 3839 ft 237 kts 345°
2026-04-22 14:03 40.36528 116.67794 3699 ft 232 kts 306°
2026-04-22 14:03 40.37041 116.65881 3505 ft 221 kts 270°
2026-04-22 14:03 40.36902 116.63914 3244 ft 213 kts 262°
2026-04-22 14:04 40.36682 116.61979 2767 ft 216 kts 262°
2026-04-22 14:04 40.36461 116.60032 2320 ft 216 kts 259°
2026-04-22 14:04 40.35845 116.58285 2010 ft 212 kts 225°
2026-04-22 14:04 40.34583 116.57325 1999 ft 215 kts 191°
2026-04-22 14:05 40.33084 116.57331 2014 ft 215 kts 173°
2026-04-22 14:05 40.31590 116.57603 2009 ft 215 kts 171°
2026-04-22 14:05 40.28622 116.58198 2000 ft 215 kts 172°
2026-04-22 14:06 40.27145 116.58455 1999 ft 215 kts 173°
2026-04-22 14:06 40.25646 116.58695 1999 ft 215 kts 173°
2026-04-22 14:06 40.24167 116.58924 1999 ft 215 kts 173°
2026-04-22 14:06 40.22671 116.59152 1999 ft 215 kts 173°
2026-04-22 14:07 40.21199 116.59378 2000 ft 204 kts 173°
2026-04-22 14:07 40.19866 116.59584 1993 ft 182 kts 173°
2026-04-22 14:07 40.18685 116.59766 1982 ft 161 kts 173°
2026-04-22 14:07 40.17641 116.59928 1922 ft 142 kts 173°
2026-04-22 14:08 40.16684 116.60077 1734 ft 138 kts 173°
2026-04-22 14:08 40.15732 116.60225 1540 ft 137 kts 173°
2026-04-22 14:08 40.14779 116.60373 1345 ft 136 kts 173°
2026-04-22 14:08 40.13845 116.60519 1155 ft 135 kts 173°
2026-04-22 14:09 40.12923 116.60662 966 ft 134 kts 173°
2026-04-22 14:09 40.11984 116.60809 708 ft 136 kts 173°
2026-04-22 14:09 40.11059 116.60953 467 ft 133 kts 173°
2026-04-22 14:09 40.10143 116.61096 298 ft 132 kts 173°
2026-04-22 14:10 40.09228 116.61240 191 ft 132 kts 173°
2026-04-22 14:10 40.08397 116.61371 182 ft 102 kts 173°
2026-04-22 14:10 40.07855 116.61441 182 ft 55 kts 192°
2026-04-22 14:10 40.07595 116.61313 182 ft 26 kts 212°
2026-04-22 14:11 40.07542 116.61156 182 ft 19 kts 262°
2026-04-22 14:11 40.07527 116.60976 182 ft 20 kts 264°
2026-04-22 14:11 40.07533 116.60815 182 ft 16 kts 278°
2026-04-22 14:11 40.07537 116.60777 182 ft 1 kts 278°
2026-04-22 14:12 40.07538 116.60774 182 ft 0 kts 278°